TimeCDT,TemperatureF,Dew PointF,Humidity,Sea Level PressureIn,VisibilityMPH,Wind Direction,Wind SpeedMPH,Gust SpeedMPH,PrecipitationIn,Events,Conditions,WindDirDegrees,DateUTC
12:53 AM,88.0,60.1,39,29.82,10.0,South,21.9,27.6,N/A,,Clear,180,2013-08-03 05:53:00
1:53 AM,86.0,61.0,43,29.81,10.0,South,18.4,-,N/A,,Clear,180,2013-08-03 06:53:00
2:53 AM,84.0,61.0,46,29.83,10.0,South,17.3,-,N/A,,Clear,180,2013-08-03 07:53:00
3:53 AM,84.0,61.0,46,29.85,10.0,South,19.6,24.2,N/A,,Overcast,190,2013-08-03 08:53:00
4:53 AM,84.0,60.1,44,29.83,10.0,South,19.6,-,0.00,,Mostly Cloudy,190,2013-08-03 09:53:00
5:53 AM,81.0,62.1,52,29.85,10.0,SSW,16.1,-,0.00,Rain,Light Rain,210,2013-08-03 10:53:00
6:53 AM,81.0,61.0,50,29.85,10.0,SSW,17.3,-,0.00,,Mostly Cloudy,200,2013-08-03 11:53:00
7:53 AM,80.1,61.0,52,29.86,10.0,South,13.8,-,N/A,,Clear,180,2013-08-03 12:53:00
8:53 AM,82.0,61.0,49,29.87,10.0,South,16.1,-,N/A,,Clear,190,2013-08-03 13:53:00
9:53 AM,87.1,60.1,40,29.88,10.0,South,19.6,-,N/A,,Clear,190,2013-08-03 14:53:00
10:53 AM,89.1,59.0,36,29.90,10.0,SSW,16.1,-,N/A,,Clear,200,2013-08-03 15:53:00
11:53 AM,93.9,57.0,29,29.89,10.0,SSW,16.1,23.0,N/A,,Clear,210,2013-08-03 16:53:00
12:53 PM,99.0,57.0,25,29.89,10.0,SW,20.7,26.5,N/A,,Clear,220,2013-08-03 17:53:00
1:53 PM,102.0,57.0,22,29.88,10.0,South,16.1,24.2,N/A,,Clear,190,2013-08-03 18:53:00
2:53 PM,102.0,57.0,22,29.87,10.0,South,18.4,24.2,N/A,,Clear,180,2013-08-03 19:53:00
3:53 PM,102.9,55.9,21,29.86,10.0,SSE,16.1,-,N/A,,Clear,150,2013-08-03 20:53:00
4:53 PM,104.0,57.0,21,29.85,10.0,South,17.3,25.3,N/A,,Clear,170,2013-08-03 21:53:00
5:53 PM,102.0,57.0,22,29.85,10.0,SSE,18.4,-,N/A,,Clear,160,2013-08-03 22:53:00
6:53 PM,100.0,55.9,23,29.85,10.0,SSE,20.7,-,N/A,,Clear,160,2013-08-03 23:53:00
7:53 PM,93.9,62.1,35,29.88,10.0,SE,21.9,27.6,N/A,,Clear,130,2013-08-04 00:53:00
8:53 PM,91.0,64.0,41,29.91,10.0,SE,19.6,26.5,N/A,,Clear,140,2013-08-04 01:53:00
9:53 PM,88.0,63.0,43,29.93,10.0,SE,18.4,-,N/A,,Clear,140,2013-08-04 02:53:00
10:53 PM,86.0,64.0,48,29.95,10.0,SE,16.1,-,N/A,,Clear,140,2013-08-04 03:53:00
11:53 PM,84.0,64.0,51,29.95,10.0,SE,15.0,-,N/A,,Clear,140,2013-08-04 04:53:00